This is the latest recevied weather packets stored in our database for station/object KC9Q. If no packets are shown the sender has not sent any weather packets the latest 10 day(s).
| Time | Temp. | Humidity | Pressure | Rain* | Wind** | Luminosity | Snow |
|---|---|---|---|---|---|---|---|
| 1777050724 | 20° C | 79% | 1008.4 hPa | 0 mm | - | 251 W/m² | - |
| 1777050419 | 20° C | 79% | 1008.5 hPa | 0 mm | - | 300 W/m² | - |
| 1777050114 | 20° C | 78% | 1008.4 hPa | 0 mm | - | 343 W/m² | - |
| 1777049809 | 19.44° C | 80% | 1008.6 hPa | 0 mm | - | 443 W/m² | - |
| 1777049505 | 19.44° C | 80% | 1008.6 hPa | 0 mm | - | 355 W/m² | - |
| 1777049204 | 19.44° C | 82% | 1008.8 hPa | 0 mm | - | 387 W/m² | - |
| 1777048904 | 19.44° C | 85% | 1008.9 hPa | 0 mm | - | 384 W/m² | - |
| 1777048599 | 18.89° C | 85% | 1008.9 hPa | 0 mm | - | 367 W/m² | - |
| 1777048294 | 18.89° C | 86% | 1009.1 hPa | 0 mm | - | 365 W/m² | - |
| 1777047989 | 18.89° C | 89% | 1009 hPa | 0 mm | - | 357 W/m² | - |
| 1777047685 | 18.33° C | 89% | 1009.2 hPa | 0 mm | - | 400 W/m² | - |
| 1777047381 | 18.33° C | 87% | 1009.7 hPa | 0 mm | - | 365 W/m² | - |
| 1777047076 | 17.78° C | 92% | 1009.6 hPa | 0 mm | - | 369 W/m² | - |
| 1777046775 | 17.78° C | 91% | 1009.8 hPa | 0 mm | - | 321 W/m² | - |
| 1777046470 | 17.22° C | 91% | 1010 hPa | 0 mm | - | 260 W/m² | - |
| 1777046165 | 17.22° C | 94% | 1010.7 hPa | 1.27 mm | - | 134 W/m² | - |
| 1777045862 | 16.67° C | 94% | 1010.4 hPa | 0.51 mm | - | 254 W/m² | - |
| 1777045557 | 16.67° C | 93% | 1010.3 hPa | 0 mm | - | 238 W/m² | - |
| 1777045253 | 16.67° C | 94% | 1010.2 hPa | 0 mm | - | 147 W/m² | - |
| 1777044950 | 16.67° C | 95% | 1010.5 hPa | 1.27 mm | - | 187 W/m² | - |
| 1777044645 | 16.67° C | 96% | 1010.4 hPa | 2.29 mm | - | 223 W/m² | - |
| 1777044342 | 16.11° C | 96% | 1010.4 hPa | 3.05 mm | - | 255 W/m² | - |
| 1777044037 | 16.11° C | 96% | 1010.7 hPa | 3.56 mm | - | 199 W/m² | - |
| 1777043733 | 16.11° C | 96% | 1010.7 hPa | 2.29 mm | - | 175 W/m² | - |
| 1777043431 | 16.11° C | 95% | 1010.8 hPa | 1.27 mm | - | 128 W/m² | - |
* Rain latest hour (hover to see other rain measurements)
** Current wind speed in m/s (hover to see current wind gust speed)